,Coso Junction,Coso Junction
,PM10_1HR,PM10_1HR
,UG/M3,UG/M3
Date,Value,Null Code
01-Sep-2022 00:00,11,
01-Sep-2022 01:00,12.6,
01-Sep-2022 02:00,11.1,
01-Sep-2022 03:00,11.6,
01-Sep-2022 04:00,13.3,
01-Sep-2022 05:00,14.6,
01-Sep-2022 06:00,15.9,
01-Sep-2022 07:00,17.4,
01-Sep-2022 08:00,18.7,
01-Sep-2022 09:00,18.4,
01-Sep-2022 10:00,16,
01-Sep-2022 11:00,12.7,
01-Sep-2022 12:00,10.4,
01-Sep-2022 13:00,6,
01-Sep-2022 14:00,13.1,
01-Sep-2022 15:00,7.4,
01-Sep-2022 16:00,17,
01-Sep-2022 17:00,15.9,
01-Sep-2022 18:00,23,
01-Sep-2022 19:00,23.5,
01-Sep-2022 20:00,23.5,
01-Sep-2022 21:00,19.4,
01-Sep-2022 22:00,19,
01-Sep-2022 23:00,26,
02-Sep-2022 00:00,20.3,
02-Sep-2022 01:00,18.4,
02-Sep-2022 02:00,17.3,
02-Sep-2022 03:00,16.8,
02-Sep-2022 04:00,16.2,
02-Sep-2022 05:00,18.6,
02-Sep-2022 06:00,20.2,
02-Sep-2022 07:00,25,
02-Sep-2022 08:00,26.3,
02-Sep-2022 09:00,26.5,
02-Sep-2022 10:00,33.4,
02-Sep-2022 11:00,17.9,
02-Sep-2022 12:00,14.6,
02-Sep-2022 13:00,10.2,
02-Sep-2022 14:00,12.2,
02-Sep-2022 15:00,12.3,
02-Sep-2022 16:00,14.5,
02-Sep-2022 17:00,14.2,
02-Sep-2022 18:00,13.5,
02-Sep-2022 19:00,19.8,
02-Sep-2022 20:00,17.9,
02-Sep-2022 21:00,19.7,
02-Sep-2022 22:00,22.4,
02-Sep-2022 23:00,25.9,
03-Sep-2022 00:00,37.6,
03-Sep-2022 01:00,49.3,
03-Sep-2022 02:00,67.5,
03-Sep-2022 03:00,73.6,
03-Sep-2022 04:00,82.9,
03-Sep-2022 05:00,62.7,
03-Sep-2022 06:00,65.5,
03-Sep-2022 07:00,59.4,
03-Sep-2022 08:00,56.1,
03-Sep-2022 09:00,51.2,
03-Sep-2022 10:00,40.1,
03-Sep-2022 11:00,28.8,
03-Sep-2022 12:00,22.3,
03-Sep-2022 13:00,18.2,
03-Sep-2022 14:00,20.7,
03-Sep-2022 15:00,20.7,
03-Sep-2022 16:00,24.6,
03-Sep-2022 17:00,19.8,
03-Sep-2022 18:00,62.6,
03-Sep-2022 19:00,80.2,
03-Sep-2022 20:00,17.4,
03-Sep-2022 21:00,13.2,
03-Sep-2022 22:00,14.6,
03-Sep-2022 23:00,15.2,
04-Sep-2022 00:00,18.7,
04-Sep-2022 01:00,18.7,
04-Sep-2022 02:00,18.1,
04-Sep-2022 03:00,19.8,
04-Sep-2022 04:00,20,
04-Sep-2022 05:00,21.7,
04-Sep-2022 06:00,25.2,
04-Sep-2022 07:00,22.3,
04-Sep-2022 08:00,26,
04-Sep-2022 09:00,22.9,
04-Sep-2022 10:00,15.8,
04-Sep-2022 11:00,14.3,
04-Sep-2022 12:00,17.6,
04-Sep-2022 13:00,17.5,
04-Sep-2022 14:00,16.4,
04-Sep-2022 15:00,35.4,
04-Sep-2022 16:00,35.4,
04-Sep-2022 17:00,19.8,
04-Sep-2022 18:00,18.1,
04-Sep-2022 19:00,15.2,
04-Sep-2022 20:00,13,
04-Sep-2022 21:00,10.4,
04-Sep-2022 22:00,15,
04-Sep-2022 23:00,11.9,
05-Sep-2022 00:00,10.8,
05-Sep-2022 01:00,14.4,
05-Sep-2022 02:00,13.3,
05-Sep-2022 03:00,19.8,
05-Sep-2022 04:00,21.2,
05-Sep-2022 05:00,18.5,
05-Sep-2022 06:00,19.5,
05-Sep-2022 07:00,18.4,
05-Sep-2022 08:00,16.2,
05-Sep-2022 09:00,18.9,
05-Sep-2022 10:00,19.5,
05-Sep-2022 11:00,17,
05-Sep-2022 12:00,36,
05-Sep-2022 13:00,55.7,
05-Sep-2022 14:00,53.5,
05-Sep-2022 15:00,34.7,
05-Sep-2022 16:00,36.3,
05-Sep-2022 17:00,38.3,
05-Sep-2022 18:00,37.2,
05-Sep-2022 19:00,30.5,
05-Sep-2022 20:00,26.4,
05-Sep-2022 21:00,22.2,
05-Sep-2022 22:00,19.2,
05-Sep-2022 23:00,17.5,
06-Sep-2022 00:00,15.1,
06-Sep-2022 01:00,18.4,
06-Sep-2022 02:00,15.8,
06-Sep-2022 03:00,16.9,
06-Sep-2022 04:00,19.3,
06-Sep-2022 05:00,14.9,
06-Sep-2022 06:00,18.4,
06-Sep-2022 07:00,24.4,
06-Sep-2022 08:00,25.9,
06-Sep-2022 09:00,24.3,
06-Sep-2022 10:00,20.8,
06-Sep-2022 11:00,14.3,
06-Sep-2022 12:00,12.7,
06-Sep-2022 13:00,7.7,
06-Sep-2022 14:00,21.6,
06-Sep-2022 15:00,21.2,
06-Sep-2022 16:00,45,
06-Sep-2022 17:00,25.2,
06-Sep-2022 18:00,17.7,
06-Sep-2022 19:00,19.3,
06-Sep-2022 20:00,18.2,
06-Sep-2022 21:00,19.2,
06-Sep-2022 22:00,19.7,
06-Sep-2022 23:00,18.2,
07-Sep-2022 00:00,18.1,
07-Sep-2022 01:00,28.3,
07-Sep-2022 02:00,23.4,
07-Sep-2022 03:00,16.6,
07-Sep-2022 04:00,25.2,
07-Sep-2022 05:00,21,
07-Sep-2022 06:00,22.4,
07-Sep-2022 07:00,,AX
07-Sep-2022 08:00,,AX
07-Sep-2022 09:00,,AX
07-Sep-2022 10:00,24.6,
07-Sep-2022 11:00,25.4,
07-Sep-2022 12:00,26.7,
07-Sep-2022 13:00,25.3,
07-Sep-2022 14:00,27.1,
07-Sep-2022 15:00,22.7,
07-Sep-2022 16:00,24.4,
07-Sep-2022 17:00,22.3,
07-Sep-2022 18:00,31.3,
07-Sep-2022 19:00,22.7,
07-Sep-2022 20:00,20.2,
07-Sep-2022 21:00,22.2,
07-Sep-2022 22:00,22.2,
07-Sep-2022 23:00,19.5,
08-Sep-2022 00:00,16.3,
08-Sep-2022 01:00,12.2,
08-Sep-2022 02:00,11.5,
08-Sep-2022 03:00,12.1,
08-Sep-2022 04:00,13.9,
08-Sep-2022 05:00,13.5,
08-Sep-2022 06:00,17.3,
08-Sep-2022 07:00,20.1,
08-Sep-2022 08:00,17.1,
08-Sep-2022 09:00,15.9,
08-Sep-2022 10:00,17.7,
08-Sep-2022 11:00,13.2,
08-Sep-2022 12:00,24.2,
08-Sep-2022 13:00,26.4,
08-Sep-2022 14:00,34,
08-Sep-2022 15:00,29.8,
08-Sep-2022 16:00,18.4,
08-Sep-2022 17:00,13.4,
08-Sep-2022 18:00,13.4,
08-Sep-2022 19:00,13,
08-Sep-2022 20:00,12.3,
08-Sep-2022 21:00,13.2,
08-Sep-2022 22:00,14.7,
08-Sep-2022 23:00,17,
09-Sep-2022 00:00,18.2,
09-Sep-2022 01:00,18.1,
09-Sep-2022 02:00,15.7,
09-Sep-2022 03:00,15.9,
09-Sep-2022 04:00,18.4,
09-Sep-2022 05:00,25.4,
09-Sep-2022 06:00,16.3,
09-Sep-2022 07:00,15,
09-Sep-2022 08:00,17.9,
09-Sep-2022 09:00,21.2,
09-Sep-2022 10:00,22.7,
09-Sep-2022 11:00,26.6,
09-Sep-2022 12:00,22.5,
09-Sep-2022 13:00,27.3,
09-Sep-2022 14:00,25.2,
09-Sep-2022 15:00,24.4,
09-Sep-2022 16:00,25.3,
09-Sep-2022 17:00,19.8,
09-Sep-2022 18:00,13.5,
09-Sep-2022 19:00,15,
09-Sep-2022 20:00,13.5,
09-Sep-2022 21:00,12.7,
09-Sep-2022 22:00,14.1,
09-Sep-2022 23:00,12.9,
10-Sep-2022 00:00,14,
10-Sep-2022 01:00,11.6,
10-Sep-2022 02:00,10.3,
10-Sep-2022 03:00,12.4,
10-Sep-2022 04:00,15.5,
10-Sep-2022 05:00,13.9,
10-Sep-2022 06:00,15.7,
10-Sep-2022 07:00,8.5,
10-Sep-2022 08:00,6.6,
10-Sep-2022 09:00,10.1,
10-Sep-2022 10:00,8,
10-Sep-2022 11:00,9.1,
10-Sep-2022 12:00,14.5,
10-Sep-2022 13:00,8.3,
10-Sep-2022 14:00,5.9,
10-Sep-2022 15:00,10.4,
10-Sep-2022 16:00,25.3,
10-Sep-2022 17:00,9.7,
10-Sep-2022 18:00,11.6,
10-Sep-2022 19:00,12.9,
10-Sep-2022 20:00,6.5,
10-Sep-2022 21:00,6.4,
10-Sep-2022 22:00,5.4,
10-Sep-2022 23:00,5.7,
11-Sep-2022 00:00,10.4,
11-Sep-2022 01:00,8.4,
11-Sep-2022 02:00,8.1,
11-Sep-2022 03:00,7.7,
11-Sep-2022 04:00,9.2,
11-Sep-2022 05:00,9.7,
11-Sep-2022 06:00,12.1,
11-Sep-2022 07:00,9.6,
11-Sep-2022 08:00,9.2,
11-Sep-2022 09:00,8.2,
11-Sep-2022 10:00,9.7,
11-Sep-2022 11:00,12.8,
11-Sep-2022 12:00,1.1,
11-Sep-2022 13:00,3.6,
11-Sep-2022 14:00,4.7,
11-Sep-2022 15:00,1.2,
11-Sep-2022 16:00,5.8,
11-Sep-2022 17:00,9.7,
11-Sep-2022 18:00,8.1,
11-Sep-2022 19:00,12.3,
11-Sep-2022 20:00,6.3,
11-Sep-2022 21:00,3.6,
11-Sep-2022 22:00,7.4,
11-Sep-2022 23:00,2.3,
12-Sep-2022 00:00,3.9,
12-Sep-2022 01:00,3.1,
12-Sep-2022 02:00,5,
12-Sep-2022 03:00,2.8,
12-Sep-2022 04:00,4.7,
12-Sep-2022 05:00,6.8,
12-Sep-2022 06:00,11.5,
12-Sep-2022 07:00,8.7,
12-Sep-2022 08:00,6.5,
12-Sep-2022 09:00,5.2,
12-Sep-2022 10:00,3.6,
12-Sep-2022 11:00,4.3,
12-Sep-2022 12:00,-1,
12-Sep-2022 13:00,0.3,
12-Sep-2022 14:00,0,
12-Sep-2022 15:00,2.9,
12-Sep-2022 16:00,9.2,
12-Sep-2022 17:00,4.7,
12-Sep-2022 18:00,12.5,
12-Sep-2022 19:00,12.9,
12-Sep-2022 20:00,7,
12-Sep-2022 21:00,13.5,
12-Sep-2022 22:00,9.7,
12-Sep-2022 23:00,6.2,
13-Sep-2022 00:00,7.7,
13-Sep-2022 01:00,7.2,
13-Sep-2022 02:00,5,
13-Sep-2022 03:00,6.6,
13-Sep-2022 04:00,5.6,
13-Sep-2022 05:00,6.3,
13-Sep-2022 06:00,9.4,
13-Sep-2022 07:00,9.1,
13-Sep-2022 08:00,5.8,
13-Sep-2022 09:00,8.6,
13-Sep-2022 10:00,14.1,
13-Sep-2022 11:00,19.8,
13-Sep-2022 12:00,23.4,
13-Sep-2022 13:00,26.4,
13-Sep-2022 14:00,38.3,
13-Sep-2022 15:00,10.6,
13-Sep-2022 16:00,20.1,
13-Sep-2022 17:00,20,
13-Sep-2022 18:00,20.7,
13-Sep-2022 19:00,23,
13-Sep-2022 20:00,20,
13-Sep-2022 21:00,25.6,
13-Sep-2022 22:00,20.7,
13-Sep-2022 23:00,19.4,
14-Sep-2022 00:00,17.8,
14-Sep-2022 01:00,15.5,
14-Sep-2022 02:00,17.2,
14-Sep-2022 03:00,16.1,
14-Sep-2022 04:00,17.7,
14-Sep-2022 05:00,16.7,
14-Sep-2022 06:00,14.7,
14-Sep-2022 07:00,9,
14-Sep-2022 08:00,10.7,
14-Sep-2022 09:00,12.8,
14-Sep-2022 10:00,12.8,
14-Sep-2022 11:00,7.1,
14-Sep-2022 12:00,6.3,
14-Sep-2022 13:00,6.1,
14-Sep-2022 14:00,11.1,
14-Sep-2022 15:00,10.2,
14-Sep-2022 16:00,22.7,
14-Sep-2022 17:00,27.6,
14-Sep-2022 18:00,25,
14-Sep-2022 19:00,21.1,
14-Sep-2022 20:00,19.5,
14-Sep-2022 21:00,17,
14-Sep-2022 22:00,17.5,
14-Sep-2022 23:00,19.2,
15-Sep-2022 00:00,16.2,
15-Sep-2022 01:00,10.3,
15-Sep-2022 02:00,13.3,
15-Sep-2022 03:00,16.2,
15-Sep-2022 04:00,13.9,
15-Sep-2022 05:00,15.9,
15-Sep-2022 06:00,16.3,
15-Sep-2022 07:00,17,
15-Sep-2022 08:00,21,
15-Sep-2022 09:00,24.7,
15-Sep-2022 10:00,23.5,
15-Sep-2022 11:00,18.2,
15-Sep-2022 12:00,23.8,
15-Sep-2022 13:00,25,
15-Sep-2022 14:00,31.2,
15-Sep-2022 15:00,27.9,
15-Sep-2022 16:00,28.6,
15-Sep-2022 17:00,27,
15-Sep-2022 18:00,24,
15-Sep-2022 19:00,21.4,
15-Sep-2022 20:00,18.8,
15-Sep-2022 21:00,19.3,
15-Sep-2022 22:00,21,
15-Sep-2022 23:00,19.1,
16-Sep-2022 00:00,21.9,
16-Sep-2022 01:00,12.7,
16-Sep-2022 02:00,16.2,
16-Sep-2022 03:00,13.7,
16-Sep-2022 04:00,19.8,
16-Sep-2022 05:00,17.7,
16-Sep-2022 06:00,18.3,
16-Sep-2022 07:00,20.2,
16-Sep-2022 08:00,24.7,
16-Sep-2022 09:00,31.6,
16-Sep-2022 10:00,30.6,
16-Sep-2022 11:00,30.6,
16-Sep-2022 12:00,26.8,
16-Sep-2022 13:00,18.3,
16-Sep-2022 14:00,19.2,
16-Sep-2022 15:00,19.9,
16-Sep-2022 16:00,21.6,
16-Sep-2022 17:00,23.1,
16-Sep-2022 18:00,25.3,
16-Sep-2022 19:00,24.4,
16-Sep-2022 20:00,29.4,
16-Sep-2022 21:00,24.8,
16-Sep-2022 22:00,27.1,
16-Sep-2022 23:00,23,
17-Sep-2022 00:00,24,
17-Sep-2022 01:00,23.6,
17-Sep-2022 02:00,22.2,
17-Sep-2022 03:00,22.5,
17-Sep-2022 04:00,20.4,
17-Sep-2022 05:00,24.7,
17-Sep-2022 06:00,28.9,
17-Sep-2022 07:00,31.3,
17-Sep-2022 08:00,32.7,
17-Sep-2022 09:00,34.6,
17-Sep-2022 10:00,35.7,
17-Sep-2022 11:00,33.2,
17-Sep-2022 12:00,29.3,
17-Sep-2022 13:00,22,
17-Sep-2022 14:00,15,
17-Sep-2022 15:00,13.6,
17-Sep-2022 16:00,17.7,
17-Sep-2022 17:00,20.1,
17-Sep-2022 18:00,42.3,
17-Sep-2022 19:00,18.7,
17-Sep-2022 20:00,16.1,
17-Sep-2022 21:00,14.8,
17-Sep-2022 22:00,14.4,
17-Sep-2022 23:00,14.7,
18-Sep-2022 00:00,16.2,
18-Sep-2022 01:00,18.9,
18-Sep-2022 02:00,28,
18-Sep-2022 03:00,26.6,
18-Sep-2022 04:00,30.6,
18-Sep-2022 05:00,26,
18-Sep-2022 06:00,30.8,
18-Sep-2022 07:00,29.6,
18-Sep-2022 08:00,23.8,
18-Sep-2022 09:00,21.4,
18-Sep-2022 10:00,16.3,
18-Sep-2022 11:00,17,
18-Sep-2022 12:00,11.7,
18-Sep-2022 13:00,17.7,
18-Sep-2022 14:00,18.2,
18-Sep-2022 15:00,28.9,
18-Sep-2022 16:00,26.8,
18-Sep-2022 17:00,16.7,
18-Sep-2022 18:00,18.3,
18-Sep-2022 19:00,15.4,
18-Sep-2022 20:00,17.5,
18-Sep-2022 21:00,17.5,
18-Sep-2022 22:00,13.8,
18-Sep-2022 23:00,13,
19-Sep-2022 00:00,13.9,
19-Sep-2022 01:00,12.5,
19-Sep-2022 02:00,12.2,
19-Sep-2022 03:00,11.2,
19-Sep-2022 04:00,9.3,
19-Sep-2022 05:00,10.7,
19-Sep-2022 06:00,10.2,
19-Sep-2022 07:00,14,
19-Sep-2022 08:00,7.2,
19-Sep-2022 09:00,10,
19-Sep-2022 10:00,6.4,
19-Sep-2022 11:00,5,
19-Sep-2022 12:00,2.1,
19-Sep-2022 13:00,15.4,
19-Sep-2022 14:00,9.8,
19-Sep-2022 15:00,9.8,
19-Sep-2022 16:00,9.8,
19-Sep-2022 17:00,8.5,
19-Sep-2022 18:00,9,
19-Sep-2022 19:00,12.1,
19-Sep-2022 20:00,9.4,
19-Sep-2022 21:00,14,
19-Sep-2022 22:00,13.8,
19-Sep-2022 23:00,10.9,
20-Sep-2022 00:00,9.9,
20-Sep-2022 01:00,11.2,
20-Sep-2022 02:00,12.2,
20-Sep-2022 03:00,12,
20-Sep-2022 04:00,14.6,
20-Sep-2022 05:00,21.7,
20-Sep-2022 06:00,19.9,
20-Sep-2022 07:00,19.6,
20-Sep-2022 08:00,21.5,
20-Sep-2022 09:00,,BL
20-Sep-2022 10:00,,BL
20-Sep-2022 11:00,,BL
20-Sep-2022 12:00,3.8,
20-Sep-2022 13:00,3.8,
20-Sep-2022 14:00,9.6,
20-Sep-2022 15:00,5.4,
20-Sep-2022 16:00,10.4,
20-Sep-2022 17:00,9.8,
20-Sep-2022 18:00,8.2,
20-Sep-2022 19:00,9,
20-Sep-2022 20:00,10.4,
20-Sep-2022 21:00,14.8,
20-Sep-2022 22:00,16,
20-Sep-2022 23:00,14.4,
21-Sep-2022 00:00,11.2,
21-Sep-2022 01:00,16.3,
21-Sep-2022 02:00,14.2,
21-Sep-2022 03:00,12.8,
21-Sep-2022 04:00,12,
21-Sep-2022 05:00,11.7,
21-Sep-2022 06:00,10.4,
21-Sep-2022 07:00,8.9,
21-Sep-2022 08:00,,BA
21-Sep-2022 09:00,,BA
21-Sep-2022 10:00,,BA
21-Sep-2022 11:00,,BA
21-Sep-2022 12:00,3.9,
21-Sep-2022 13:00,10.1,
21-Sep-2022 14:00,8.3,
21-Sep-2022 15:00,8.5,
21-Sep-2022 16:00,4.4,
21-Sep-2022 17:00,6.8,
21-Sep-2022 18:00,7.2,
21-Sep-2022 19:00,9.8,
21-Sep-2022 20:00,11.2,
21-Sep-2022 21:00,11.3,
21-Sep-2022 22:00,10.5,
21-Sep-2022 23:00,9,
22-Sep-2022 00:00,9.6,
22-Sep-2022 01:00,7.7,
22-Sep-2022 02:00,11.3,
22-Sep-2022 03:00,9.2,
22-Sep-2022 04:00,8,
22-Sep-2022 05:00,9,
22-Sep-2022 06:00,7.8,
22-Sep-2022 07:00,9.8,
22-Sep-2022 08:00,12.6,
22-Sep-2022 09:00,7.2,
22-Sep-2022 10:00,6.4,
22-Sep-2022 11:00,5,
22-Sep-2022 12:00,9.8,
22-Sep-2022 13:00,5.9,
22-Sep-2022 14:00,7,
22-Sep-2022 15:00,8.7,
22-Sep-2022 16:00,8.7,
22-Sep-2022 17:00,5.8,
22-Sep-2022 18:00,6.9,
22-Sep-2022 19:00,8.6,
22-Sep-2022 20:00,7.2,
22-Sep-2022 21:00,5.9,
22-Sep-2022 22:00,6.1,
22-Sep-2022 23:00,6.6,
23-Sep-2022 00:00,8.5,
23-Sep-2022 01:00,9.2,
23-Sep-2022 02:00,7.1,
23-Sep-2022 03:00,6.6,
23-Sep-2022 04:00,6.9,
23-Sep-2022 05:00,7.3,
23-Sep-2022 06:00,6,
23-Sep-2022 07:00,12.4,
23-Sep-2022 08:00,10.4,
23-Sep-2022 09:00,8.6,
23-Sep-2022 10:00,7.8,
23-Sep-2022 11:00,3.9,
23-Sep-2022 12:00,4.7,
23-Sep-2022 13:00,5.3,
23-Sep-2022 14:00,11.3,
23-Sep-2022 15:00,8.5,
23-Sep-2022 16:00,10.3,
23-Sep-2022 17:00,7.2,
23-Sep-2022 18:00,7.7,
23-Sep-2022 19:00,7.8,
23-Sep-2022 20:00,9.8,
23-Sep-2022 21:00,9.5,
23-Sep-2022 22:00,7.4,
23-Sep-2022 23:00,8.4,
24-Sep-2022 00:00,8.3,
24-Sep-2022 01:00,8.3,
24-Sep-2022 02:00,7.2,
24-Sep-2022 03:00,7.5,
24-Sep-2022 04:00,9.2,
24-Sep-2022 05:00,9.3,
24-Sep-2022 06:00,9.9,
24-Sep-2022 07:00,9.7,
24-Sep-2022 08:00,10.5,
24-Sep-2022 09:00,8.9,
24-Sep-2022 10:00,7.7,
24-Sep-2022 11:00,9.9,
24-Sep-2022 12:00,12,
24-Sep-2022 13:00,11.3,
24-Sep-2022 14:00,10.2,
24-Sep-2022 15:00,11.6,
24-Sep-2022 16:00,13.1,
24-Sep-2022 17:00,17.7,
24-Sep-2022 18:00,11.2,
24-Sep-2022 19:00,10.8,
24-Sep-2022 20:00,9.7,
24-Sep-2022 21:00,9.1,
24-Sep-2022 22:00,9,
24-Sep-2022 23:00,11.5,
25-Sep-2022 00:00,9.8,
25-Sep-2022 01:00,9.9,
25-Sep-2022 02:00,9.9,
25-Sep-2022 03:00,9.2,
25-Sep-2022 04:00,15.5,
25-Sep-2022 05:00,10.7,
25-Sep-2022 06:00,11.7,
25-Sep-2022 07:00,8.5,
25-Sep-2022 08:00,9.2,
25-Sep-2022 09:00,8.9,
25-Sep-2022 10:00,10,
25-Sep-2022 11:00,8,
25-Sep-2022 12:00,9.7,
25-Sep-2022 13:00,9,
25-Sep-2022 14:00,8.4,
25-Sep-2022 15:00,11.7,
25-Sep-2022 16:00,11.4,
25-Sep-2022 17:00,15.4,
25-Sep-2022 18:00,13.3,
25-Sep-2022 19:00,8.4,
25-Sep-2022 20:00,9.1,
25-Sep-2022 21:00,9.2,
25-Sep-2022 22:00,8.8,
25-Sep-2022 23:00,8.3,
26-Sep-2022 00:00,9.5,
26-Sep-2022 01:00,8.8,
26-Sep-2022 02:00,8.8,
26-Sep-2022 03:00,8.6,
26-Sep-2022 04:00,14.7,
26-Sep-2022 05:00,20.9,
26-Sep-2022 06:00,13.7,
26-Sep-2022 07:00,13.5,
26-Sep-2022 08:00,13,
26-Sep-2022 09:00,13.4,
26-Sep-2022 10:00,5.5,
26-Sep-2022 11:00,5,
26-Sep-2022 12:00,7.6,
26-Sep-2022 13:00,7.4,
26-Sep-2022 14:00,10.1,
26-Sep-2022 15:00,11.3,
26-Sep-2022 16:00,12,
26-Sep-2022 17:00,8.9,
26-Sep-2022 18:00,8.1,
26-Sep-2022 19:00,10.7,
26-Sep-2022 20:00,12.2,
26-Sep-2022 21:00,10.5,
26-Sep-2022 22:00,8.8,
26-Sep-2022 23:00,7.9,
27-Sep-2022 00:00,7.5,
27-Sep-2022 01:00,7.7,
27-Sep-2022 02:00,7.5,
27-Sep-2022 03:00,7.2,
27-Sep-2022 04:00,11.3,
27-Sep-2022 05:00,7.4,
27-Sep-2022 06:00,12.6,
27-Sep-2022 07:00,8.4,
27-Sep-2022 08:00,26.8,
27-Sep-2022 09:00,8,
27-Sep-2022 10:00,7.4,
27-Sep-2022 11:00,8.2,
27-Sep-2022 12:00,9.1,
27-Sep-2022 13:00,9.1,
27-Sep-2022 14:00,12.9,
27-Sep-2022 15:00,12.9,
27-Sep-2022 16:00,10.6,
27-Sep-2022 17:00,26.9,
27-Sep-2022 18:00,13.9,
27-Sep-2022 19:00,17.6,
27-Sep-2022 20:00,17.6,
27-Sep-2022 21:00,10.3,
27-Sep-2022 22:00,7.6,
27-Sep-2022 23:00,10.4,
28-Sep-2022 00:00,11.7,
28-Sep-2022 01:00,9.7,
28-Sep-2022 02:00,10.4,
28-Sep-2022 03:00,9.7,
28-Sep-2022 04:00,10.1,
28-Sep-2022 05:00,15.6,
28-Sep-2022 06:00,10.6,
28-Sep-2022 07:00,11.7,
28-Sep-2022 08:00,12.7,
28-Sep-2022 09:00,9.4,
28-Sep-2022 10:00,8.4,
28-Sep-2022 11:00,8.1,
28-Sep-2022 12:00,14.6,
28-Sep-2022 13:00,11.5,
28-Sep-2022 14:00,21.2,
28-Sep-2022 15:00,18.3,
28-Sep-2022 16:00,15.3,
28-Sep-2022 17:00,15.7,
28-Sep-2022 18:00,14.8,
28-Sep-2022 19:00,15.3,
28-Sep-2022 20:00,16.1,
28-Sep-2022 21:00,10.5,
28-Sep-2022 22:00,10.8,
28-Sep-2022 23:00,9.7,
29-Sep-2022 00:00,7,
29-Sep-2022 01:00,4.8,
29-Sep-2022 02:00,5.7,
29-Sep-2022 03:00,7.1,
29-Sep-2022 04:00,12.5,
29-Sep-2022 05:00,12.6,
29-Sep-2022 06:00,9.4,
29-Sep-2022 07:00,11.2,
29-Sep-2022 08:00,10.2,
29-Sep-2022 09:00,11,
29-Sep-2022 10:00,10.8,
29-Sep-2022 11:00,13.2,
29-Sep-2022 12:00,10.3,
29-Sep-2022 13:00,7.1,
29-Sep-2022 14:00,18,
29-Sep-2022 15:00,13.1,
29-Sep-2022 16:00,16.8,
29-Sep-2022 17:00,26.1,
29-Sep-2022 18:00,18.5,
29-Sep-2022 19:00,16.1,
29-Sep-2022 20:00,14.1,
29-Sep-2022 21:00,21.7,
29-Sep-2022 22:00,13.1,
29-Sep-2022 23:00,22.9,
30-Sep-2022 00:00,17.7,
30-Sep-2022 01:00,13.4,
30-Sep-2022 02:00,12,
30-Sep-2022 03:00,13.5,
30-Sep-2022 04:00,13.3,
30-Sep-2022 05:00,13.8,
30-Sep-2022 06:00,14.5,
30-Sep-2022 07:00,15.2,
30-Sep-2022 08:00,14.6,
30-Sep-2022 09:00,11.8,
30-Sep-2022 10:00,9,
30-Sep-2022 11:00,12.1,
30-Sep-2022 12:00,11.6,
30-Sep-2022 13:00,11.8,
30-Sep-2022 14:00,16.6,
30-Sep-2022 15:00,14.9,
30-Sep-2022 16:00,19.7,
30-Sep-2022 17:00,17.2,
30-Sep-2022 18:00,15.2,
30-Sep-2022 19:00,16.3,
30-Sep-2022 20:00,16.6,
30-Sep-2022 21:00,17,
30-Sep-2022 22:00,16.1,
30-Sep-2022 23:00,19.6,
